Weather History for KPSK - February, 2014

Change the Weather History Date:

Saturday, February 8, 2014

  Actual Average (KBCB) Record (KBCB)
Temperature  
Mean Temperature 32 °F 33 °F  
Max Temperature 37 °F 43 °F 63 °F (2015)
Min Temperature 26 °F 23 °F -3 °F (1967)
Degree Days  
Heating Degree Days 34 32  
Month to date heating degree days 259  
Since 1 July heating degree days 3446  
Cooling Degree Days 0 0  
Month to date cooling degree days 0  
Year to date cooling degree days 0  
Moisture  
Dew Point 27 °F    
Average Humidity 84    
Maximum Humidity 93    
Minimum Humidity 70    
Precipitation  
Precipitation 0.00 in 0.09 in 0.91 in (1965)
Month to date precipitation 0.79  
Year to date precipitation 3.87  
Snow  
Snow 0.00 in - - ()
Month to date snowfall  
Since 1 July snowfall  
Snow Depth -    
Sea Level Pressure  
Sea Level Pressure 30.17 in    
Wind  
Wind Speed 0 mph (SW)    
Max Wind Speed 5 mph    
Max Gust Speed -    
Visibility 9 miles    
Events Snow    
T = Trace of Precipitation, MM = Missing Value Source: NWS Daily Summary

Daily Weather History Graph

Daily Weather History Graph

Search for Another Location

Airport or City:

Trip Planner

Search our weather history database for the weather conditions in past years. The results will help you decide how hot, cold, wet, or windy it might be!

Date:

Astronomy

Feb. 08, 2014 Rise Set
Actual Time 7:19 AM EST 5:55 PM EST
Civil Twilight 6:52 AM EST 6:22 PM EST
Nautical Twilight 6:21 AM EST 6:53 PM EST
Astronomical Twilight 5:50 AM EST 7:23 PM EST
Moon 12:50 PM EST (2/8) 2:28 AM EST (2/8)
Length of Visible Light 11h 30m
Length of Day
10h 36m
Waxing Gibbous, 68% of the Moon is Illuminated
Feb 8
Waxing Gibbous
Feb 14
Full
Feb 22
Last Quarter
Mar 1
New
Mar 8
First Quarter

Hourly Weather History & Observations

Time (EST) Temp. Windchill Dew Point Humidity Pressure Visibility Wind Dir Wind Speed Gust Speed Precip Events Conditions
12:15 AM 26.6 °F - 21.2 °F 80% 30.25 in 10.0 mi Calm Calm - N/A   Clear
12:35 AM 26.6 °F - 21.2 °F 80% 30.24 in 10.0 mi Calm Calm - N/A   Clear
12:55 AM 26.6 °F - 21.2 °F 80% 30.23 in 10.0 mi Calm Calm - N/A   Clear
1:15 AM 26.6 °F - 21.2 °F 80% 30.22 in 10.0 mi Calm Calm - N/A   Clear
1:35 AM 26.6 °F - 21.2 °F 80% 30.22 in 10.0 mi Calm Calm - N/A   Clear
1:55 AM 26.6 °F - 21.2 °F 80% 30.22 in 10.0 mi Calm Calm - N/A   Clear
2:15 AM 26.6 °F - 21.2 °F 80% 30.22 in 10.0 mi Calm Calm - N/A   Scattered Clouds
2:35 AM 26.6 °F - 21.2 °F 80% 30.22 in 10.0 mi Calm Calm - N/A   Clear
2:55 AM 26.6 °F - 23.0 °F 86% 30.21 in 10.0 mi Calm Calm - N/A   Clear
3:15 AM 26.6 °F - 21.2 °F 80% 30.21 in 10.0 mi Calm Calm - N/A   Clear
3:35 AM 26.6 °F - 23.0 °F 86% 30.20 in 10.0 mi Calm Calm - N/A   Clear
3:55 AM 26.6 °F - 21.2 °F 80% 30.22 in 10.0 mi Calm Calm - N/A   Scattered Clouds
4:15 AM 26.6 °F - 23.0 °F 86% 30.21 in 10.0 mi Calm Calm - N/A   Overcast
4:35 AM 26.6 °F - 23.0 °F 86% 30.21 in 10.0 mi Calm Calm - N/A   Overcast
4:55 AM 28.4 °F - 23.0 °F 80% 30.21 in 10.0 mi Calm Calm - N/A   Overcast
5:15 AM 26.6 °F - 23.0 °F 86% 30.21 in 10.0 mi Calm Calm - N/A   Overcast
5:35 AM 26.6 °F - 23.0 °F 86% 30.22 in 10.0 mi Calm Calm - N/A   Overcast
5:55 AM 28.4 °F - 23.0 °F 80% 30.21 in 10.0 mi Calm Calm - N/A   Overcast
6:15 AM 28.4 °F - 23.0 °F 80% 30.22 in 4.0 mi Calm Calm - N/A Snow Light Snow
6:35 AM 28.4 °F - 23.0 °F 80% 30.22 in 10.0 mi Calm Calm - N/A   Overcast
6:55 AM 28.4 °F - 24.8 °F 86% 30.23 in 10.0 mi Calm Calm - N/A   Overcast
7:15 AM 28.4 °F - 24.8 °F 86% 30.22 in 10.0 mi Calm Calm - N/A   Overcast
7:35 AM 28.4 °F - 24.8 °F 86% 30.21 in 10.0 mi Calm Calm - N/A   Overcast
7:55 AM 28.4 °F 24.6 °F 24.8 °F 86% 30.18 in 10.0 mi NNE 3.5 mph - N/A   Mostly Cloudy
8:15 AM 28.4 °F - 24.8 °F 86% 30.22 in 10.0 mi Calm Calm - N/A   Scattered Clouds
8:35 AM 28.4 °F - 24.8 °F 86% 30.23 in 10.0 mi Calm Calm - N/A   Overcast
8:37 AM 28.4 °F - 24.8 °F 86% 30.22 in 10.0 mi Calm Calm - N/A   Overcast
8:55 AM 28.4 °F - 24.8 °F 86% 30.21 in 4.0 mi Calm Calm - N/A Snow Light Snow
9:15 AM 28.4 °F - 24.8 °F 86% 30.22 in 1.2 mi Calm Calm - N/A Snow Light Snow
9:35 AM 28.4 °F - 24.8 °F 86% 30.23 in 2.5 mi Calm Calm - N/A Snow Light Snow
9:55 AM 28.4 °F - 26.6 °F 93% 30.22 in 7.0 mi Calm Calm - N/A   Overcast
10:15 AM 28.4 °F - 26.6 °F 93% 30.23 in 7.0 mi Calm Calm - N/A   Overcast
10:35 AM 28.4 °F - 26.6 °F 93% 30.23 in 10.0 mi Calm Calm - N/A   Overcast
10:55 AM 30.2 °F - 26.6 °F 86% 30.22 in 10.0 mi Calm Calm - N/A   Overcast
11:15 AM 30.2 °F - 26.6 °F 86% 30.22 in 10.0 mi Calm Calm - N/A   Overcast
11:35 AM 30.2 °F - 26.6 °F 86% 30.22 in 10.0 mi Calm Calm - N/A   Overcast
11:55 AM 30.2 °F - 26.6 °F 86% 30.21 in 10.0 mi Calm Calm - N/A   Overcast
12:15 PM 30.2 °F - 28.4 °F 93% 30.20 in 5.0 mi Calm Calm - N/A Snow Light Snow
12:35 PM 32.0 °F - 28.4 °F 87% 30.18 in 5.0 mi Calm Calm - N/A   Overcast
12:55 PM 32.0 °F - 28.4 °F 87% 30.17 in 7.0 mi Calm Calm - N/A   Overcast
1:15 PM 32.0 °F - 28.4 °F 87% 30.15 in 7.0 mi Calm Calm - N/A   Mostly Cloudy
1:35 PM 33.8 °F - 30.2 °F 87% 30.13 in 10.0 mi Calm Calm - N/A   Mostly Cloudy
1:55 PM 33.8 °F - 28.4 °F 81% 30.13 in 10.0 mi Calm Calm - N/A   Overcast
2:15 PM 33.8 °F - 30.2 °F 87% 30.12 in 10.0 mi Calm Calm - N/A   Overcast
2:35 PM 35.6 °F - 30.2 °F 81% 30.11 in 10.0 mi Calm Calm - N/A   Overcast
2:55 PM 35.6 °F - 30.2 °F 81% 30.11 in 10.0 mi Calm Calm - N/A   Overcast
3:15 PM 37.4 °F 34.9 °F 30.2 °F 75% 30.10 in 10.0 mi SSW 3.5 mph - N/A   Overcast
3:35 PM 37.4 °F 34.9 °F 30.2 °F 75% 30.11 in 10.0 mi SW 3.5 mph - N/A   Overcast
3:55 PM 37.4 °F - 28.4 °F 70% 30.10 in 10.0 mi Calm Calm - N/A   Overcast
4:15 PM 37.4 °F - 28.4 °F 70% 30.11 in 10.0 mi Calm Calm - N/A   Overcast
4:35 PM 37.4 °F - 30.2 °F 75% 30.12 in 10.0 mi Calm Calm - N/A   Overcast
4:55 PM 37.4 °F - 30.2 °F 75% 30.12 in 10.0 mi Calm Calm - N/A   Overcast
5:15 PM 37.4 °F - 30.2 °F 75% 30.11 in 10.0 mi Calm Calm - N/A   Overcast
5:35 PM 35.6 °F - 30.2 °F 81% 30.12 in 10.0 mi Calm Calm - N/A   Overcast
5:55 PM 35.6 °F - 30.2 °F 81% 30.11 in 10.0 mi Calm Calm - N/A   Overcast
6:15 PM 33.8 °F 30.8 °F 28.4 °F 81% 30.11 in 10.0 mi North 3.5 mph - N/A   Scattered Clouds
6:35 PM 33.8 °F - 28.4 °F 81% 30.12 in 10.0 mi Calm Calm - N/A   Mostly Cloudy
6:55 PM 33.8 °F - 28.4 °F 81% 30.12 in 10.0 mi Calm Calm - N/A   Mostly Cloudy
7:15 PM 33.8 °F - 28.4 °F 81% 30.12 in 10.0 mi Calm Calm - N/A   Overcast
7:35 PM 33.8 °F - 28.4 °F 81% 30.12 in 10.0 mi Calm Calm - N/A   Overcast
7:55 PM 33.8 °F - 30.2 °F 87% 30.12 in 10.0 mi Calm Calm - N/A   Overcast
7:56 PM 33.8 °F - 30.2 °F 87% 30.12 in 10.0 mi Calm Calm - N/A   Overcast
8:15 PM 33.8 °F - 30.2 °F 87% 30.12 in 10.0 mi Calm Calm - N/A   Overcast
8:35 PM 33.8 °F - 30.2 °F 87% 30.12 in 10.0 mi Calm Calm - N/A   Overcast
8:55 PM 33.8 °F - 30.2 °F 87% 30.12 in 10.0 mi Calm Calm - N/A   Overcast
9:15 PM 32.0 °F - 28.4 °F 87% 30.14 in 7.0 mi Calm Calm - N/A   Mostly Cloudy
9:35 PM 32.0 °F - 28.4 °F 87% 30.14 in 7.0 mi Calm Calm - N/A   Overcast
9:55 PM 32.0 °F - 30.2 °F 93% 30.14 in 10.0 mi Calm Calm - N/A   Overcast
10:15 PM 32.0 °F - 30.2 °F 93% 30.14 in 7.0 mi Calm Calm - N/A   Overcast
10:35 PM 32.0 °F 28.7 °F 30.2 °F 93% 30.13 in 7.0 mi SSW 3.5 mph - N/A   Overcast
10:55 PM 30.2 °F 25.4 °F 28.4 °F 93% 30.13 in 7.0 mi SW 4.6 mph - N/A   Scattered Clouds
11:15 PM 30.2 °F - 28.4 °F 93% 30.13 in 7.0 mi Calm Calm - N/A   Scattered Clouds
11:35 PM 32.0 °F 27.5 °F 30.2 °F 93% 30.14 in 10.0 mi SW 4.6 mph - N/A   Overcast
11:55 PM 32.0 °F - 30.2 °F 93% 30.14 in 7.0 mi Calm Calm - N/A   Overcast